EW1423 Weather Reports


Display with metric or nautical units.
time (UTC)temp
F
wind
direction
speed
MPH
gust
MPH
rain 1hr
in
rain 24hr
in
rain mn
in
humidity
%
barometer
mb
20260902115803 77 39 0.0 2.0 0.00 0.00 0.00 56 1020.7
20260902114804 78 34 2.0 5.0 0.00 0.00 0.00 54 1020.6
20260902114304 79 283 0.0 2.0 0.00 0.00 0.00 52 1020.6
20260902113804 79 275 0.0 0.0 0.00 0.00 0.00 52 1020.6
20260902113304 79 275 0.0 2.0 0.00 0.00 0.00 52 1020.8
20260902112803 80 337 0.0 3.0 0.00 0.00 0.00 53 1020.8
20260902111804 80 335 1.0 3.0 0.00 0.00 0.00 50 1021.1
20260902110804 81 69 0.0 2.0 0.00 0.00 0.00 52 1021.1
20260902110304 81 66 0.0 5.0 0.00 0.00 0.00 52 1021.1
20260902105803 82 64 0.0 0.0 0.00 0.00 0.00 52 1021.4
20260902105306 81 64 0.0 5.0 0.00 0.00 0.00 53 1021.4
20260902104303 80 205 0.0 0.0 0.00 0.00 0.00 55 1021.5
20260902103804 79 230 0.0 0.0 0.00 0.00 0.00 58 1021.6
20260902103304 78 230 0.0 0.0 0.00 0.00 0.00 56 1021.6
20260902102307 76 136 0.0 0.0 0.00 0.00 0.00 60 1021.8
20260902101804 77 171 0.0 0.0 0.00 0.00 0.00 61 1021.8
20260902101304 77 171 0.0 1.0 0.00 0.00 0.00 59 1021.8
20260902100804 77 169 1.0 5.0 0.00 0.00 0.00 61 1021.8
20260902100304 76 117 0.0 0.0 0.00 0.00 0.00 61 1021.8
20260902095306 75 175 0.0 0.0 0.00 0.00 0.00 63 1021.8
20260902094804 74 175 0.0 1.0 0.00 0.00 0.00 64 1022.0
20260902094304 74 327 0.0 0.0 0.00 0.00 0.00 67 1022.0
20260902093804 73 195 0.0 0.0 0.00 0.00 0.00 66 1022.0
20260902093303 72 73 0.0 0.0 0.00 0.00 0.00 68 1022.0
20260902092804 71 73 0.0 0.0 0.00 0.00 0.00 69 1022.0
20260902092305 71 73 0.0 0.0 0.00 0.00 0.00 69 1022.0
20260902091303 68 73 0.0 0.0 0.00 0.00 0.00 74 1022.0
20260902090304 66 73 0.0 0.0 0.00 0.00 0.00 78 1022.0
20260902084804 65 49 0.0 1.0 0.00 0.00 0.00 79 1022.0
20260902084303 65 127 0.0 0.0 0.00 0.00 0.00 78 1022.1
20260902083303 64 80 0.0 0.0 0.00 0.00 0.00 80 1022.1
20260902082804 64 94 0.0 0.0 0.00 0.00 0.00 80 1022.1
20260902082309 64 91 0.0 0.0 0.00 0.00 0.00 78 1022.1
20260902081804 65 163 0.0 0.0 0.00 0.00 0.00 78 1022.1
20260902081304 65 150 0.0 0.0 0.00 0.00 0.00 81 1022.1
20260902080803 64 153 0.0 0.0 0.00 0.00 0.00 81 1022.0
20260902080304 63 174 0.0 3.0 0.00 0.00 0.00 82 1022.0
20260902075803 62 163 0.0 0.0 0.00 0.00 0.00 83 1022.0
20260902074803 61 156 0.0 0.0 0.00 0.00 0.00 86 1022.0
20260902074304 61 153 0.0 0.0 0.00 0.00 0.00 86 1022.0
20260902073803 61 142 0.0 3.0 0.00 0.00 0.00 86 1022.0
20260902073304 61 56 0.0 2.0 0.00 0.00 0.00 85 1022.0
20260902072803 61 112 0.0 0.0 0.00 0.00 0.00 86 1022.0
20260902072309 60 132 0.0 0.0 0.00 0.00 0.00 86 1022.0
20260902071803 60 121 0.0 0.0 0.00 0.00 0.00 86 1022.0
20260902070804 59 92 0.0 0.0 0.00 0.00 0.00 88 1022.0
20260902070303 58 88 0.0 0.0 0.00 0.00 0.00 88 1022.0
20260902065804 58 88 0.0 0.0 0.00 0.00 0.00 89 1022.0
20260902065306 58 88 0.0 0.0 0.00 0.00 0.00 88 1022.0
20260902064803 58 88 0.0 0.0 0.00 0.00 0.00 89 1022.0
20260902064303 58 164 0.0 0.0 0.00 0.00 0.00 90 1022.0
20260902063804 57 103 0.0 0.0 0.00 0.00 0.00 91 1021.9
20260902063304 57 68 0.0 0.0 0.00 0.00 0.00 92 1021.9
20260902062804 56 68 0.0 0.0 0.00 0.00 0.00 93 1021.9
20260902062306 56 68 0.0 0.0 0.00 0.00 0.00 94 1022.1
20260902061804 56 65 0.0 0.0 0.00 0.00 0.00 94 1022.1
20260902061303 55 59 0.0 0.0 0.00 0.00 0.00 94 1021.9
20260902060304 55 186 0.0 0.0 0.00 0.00 0.00 95 1021.9
20260902055804 55 186 0.0 0.0 0.00 0.00 0.00 96 1021.9
20260902055306 54 186 0.0 0.0 0.00 0.00 0.00 97 1021.9
20260902054303 54 186 0.0 0.0 0.00 0.00 0.00 97 1021.9
20260902053304 54 186 0.0 0.0 0.00 0.00 0.00 98 1021.9
20260902052306 53 186 0.0 1.0 0.00 0.00 0.00 98 1021.9
20260902051803 53 186 0.0 0.0 0.00 0.00 0.00 99 1021.9
20260902051303 53 186 0.0 0.0 0.00 0.00 0.00 99 1021.9
20260902050304 52 194 0.0 1.0 0.00 0.00 0.00 100 1021.9
20260902045306 52 195 0.0 0.0 0.00 0.00 0.00 100 1021.8
20260902044304 52 195 0.0 0.0 0.00 0.00 0.00 100 1021.8
20260902043804 52 195 0.0 0.0 0.00 0.00 0.00 100 1021.8
20260902043303 52 195 0.0 0.0 0.00 0.00 0.00 100 1021.8
20260902042803 52 195 0.0 0.0 0.00 0.00 0.00 100 1021.9
20260902042308 52 195 0.0 0.0 0.00 0.00 0.00 100 1021.9
20260902041303 52 195 0.0 0.0 0.00 0.00 0.00 100 1021.9
20260902040303 52 195 0.0 0.0 0.00 0.00 0.00 100 1021.7
20260902035803 52 195 0.0 0.0 0.00 0.00 0.00 100 1021.9
20260902034804 52 195 0.0 0.0 0.00 0.00 0.00 100 1021.9
20260902034304 52 195 0.0 0.0 0.00 0.00 0.00 100 1021.9
20260902033804 52 195 0.0 0.0 0.00 0.00 0.00 100 1021.9
20260902033304 52 195 0.0 0.0 0.00 0.00 0.00 100 1021.9
20260902032306 52 195 0.0 0.0 0.00 0.00 0.00 100 1021.9
20260902030803 51 326 0.0 0.0 0.00 0.00 0.00 100 1021.9
20260902030303 52 326 0.0 0.0 0.00 0.00 0.00 99 1021.9
20260902025306 52 326 0.0 0.0 0.00 0.00 0.00 99 1021.9
20260902024804 52 326 0.0 0.0 0.00 0.00 0.00 99 1021.9
20260902024303 52 326 0.0 0.0 0.00 0.00 0.00 99 1021.9
20260902022804 53 326 0.0 0.0 0.00 0.00 0.00 98 1021.8
20260902022306 53 326 0.0 0.0 0.00 0.00 0.00 98 1021.8
20260902021804 53 326 0.0 0.0 0.00 0.00 0.00 98 1021.8
20260902021304 53 326 0.0 0.0 0.00 0.00 0.00 98 1021.8
20260902020804 53 326 0.0 0.0 0.00 0.00 0.00 98 1021.8
20260902020303 53 326 0.0 0.0 0.00 0.00 0.00 98 1021.9
20260902015804 54 326 0.0 0.0 0.00 0.00 0.00 98 1021.9
20260902015306 54 326 0.0 0.0 0.00 0.00 0.00 98 1021.9
20260902014803 54 326 0.0 0.0 0.00 0.00 0.00 98 1021.9
20260902014304 53 326 0.0 0.0 0.00 0.00 0.00 98 1021.9
20260902013803 54 326 0.0 0.0 0.00 0.00 0.00 98 1021.9
20260902013304 54 326 0.0 0.0 0.00 0.00 0.00 98 1022.0
20260902012308 53 326 0.0 0.0 0.00 0.00 0.00 98 1022.0
20260902010803 54 326 0.0 0.0 0.00 0.00 0.00 99 1022.0
20260902010303 54 326 0.0 0.0 0.00 0.00 0.00 99 1022.0
20260902005804 54 326 0.0 0.0 0.00 0.00 0.00 99 1022.0
20260902005306 53 326 0.0 0.0 0.00 0.00 0.00 99 1022.0
20260902004804 53 326 0.0 0.0 0.00 0.00 0.00 99 1022.1
20260902004303 53 326 0.0 0.0 0.00 0.00 0.00 99 1022.1
20260902003803 53 326 0.0 0.0 0.00 0.00 0.00 99 1022.1
20260902002804 53 326 0.0 0.0 0.00 0.00 0.00 99 1022.2
20260902002306 53 326 0.0 0.0 0.00 0.00 0.00 98 1022.3
20260902001804 53 326 0.0 0.0 0.00 0.00 0.00 99 1022.3
20260902001303 53 326 0.0 0.0 0.00 0.00 0.00 99 1022.3
20260902000804 53 326 0.0 0.0 0.00 0.00 0.00 99 1022.3
20260902000304 53 326 0.0 0.0 0.00 0.00 0.00 99 1022.3
20260901235803 53 326 0.0 0.0 0.00 0.00 0.00 98 1022.2
20260901235307 53 326 0.0 0.0 0.00 0.00 0.00 98 1022.2
20260901234805 53 326 0.0 0.0 0.00 0.00 0.00 98 1022.2
20260901233803 54 326 0.0 0.0 0.00 0.00 0.00 97 1022.2
20260901233303 54 326 0.0 0.0 0.00 0.00 0.00 97 1022.2
20260901232805 54 326 0.0 0.0 0.00 0.00 0.00 97 1022.2
20260901232306 54 326 0.0 0.0 0.00 0.00 0.00 97 1022.2
20260901231803 54 326 0.0 0.0 0.00 0.00 0.00 97 1022.3
20260901231304 54 326 0.0 0.0 0.00 0.00 0.00 97 1022.3
20260901225804 55 326 0.0 0.0 0.00 0.00 0.00 96 1022.3
20260901225306 55 326 0.0 0.0 0.00 0.00 0.00 96 1022.3
20260901224803 55 326 0.0 0.0 0.00 0.00 0.00 95 1022.4
20260901223804 55 326 0.0 0.0 0.00 0.00 0.00 95 1022.1
20260901223304 55 326 0.0 0.0 0.00 0.00 0.00 95 1022.1
20260901222803 55 326 0.0 0.0 0.00 0.00 0.00 95 1022.1
20260901222306 55 326 0.0 0.0 0.00 0.00 0.00 95 1022.1
20260901221804 55 326 0.0 0.0 0.00 0.00 0.00 95 1022.1
20260901221304 56 326 0.0 0.0 0.00 0.00 0.00 94 1022.1
20260901220810 56 326 0.0 0.0 0.00 0.00 0.00 94 1022.1
20260901220303 56 326 0.0 0.0 0.00 0.00 0.00 94 1022.1
20260901214804 56 326 0.0 0.0 0.00 0.00 0.00 93 1022.1
20260901214303 56 326 0.0 0.0 0.00 0.00 0.00 93 1022.1
20260901213804 56 326 0.0 0.0 0.00 0.00 0.00 93 1022.1
20260901213304 56 326 0.0 0.0 0.00 0.00 0.00 93 1022.1
20260901212804 57 326 0.0 0.0 0.00 0.00 0.00 92 1022.1
20260901211803 57 326 0.0 0.0 0.00 0.00 0.00 92 1022.1
20260901210804 57 326 0.0 0.0 0.00 0.00 0.00 92 1021.8
20260901205804 58 326 0.0 0.0 0.00 0.00 0.00 90 1021.8
20260901205306 58 326 0.0 0.0 0.00 0.00 0.00 91 1021.8
20260901204804 58 326 0.0 0.0 0.00 0.00 0.00 90 1021.8
20260901204304 58 326 0.0 0.0 0.00 0.00 0.00 90 1021.8
20260901203804 58 326 0.0 0.0 0.00 0.00 0.00 90 1021.8
20260901202805 58 326 0.0 0.0 0.00 0.00 0.00 90 1021.8
20260901201804 59 326 0.0 0.0 0.00 0.00 0.00 89 1021.8
20260901201304 59 326 0.0 0.0 0.00 0.00 0.00 89 1021.8
20260901200803 59 326 0.0 0.0 0.00 0.00 0.00 88 1021.8
20260901195804 60 326 0.0 0.0 0.00 0.00 0.00 87 1021.8
20260901195306 60 326 0.0 0.0 0.00 0.00 0.00 86 1021.7
20260901194804 60 326 0.0 0.0 0.00 0.00 0.00 86 1021.7
20260901193804 60 326 0.0 0.0 0.00 0.00 0.00 86 1021.7
20260901193304 61 326 0.0 0.0 0.00 0.00 0.00 85 1021.7
20260901192804 61 326 0.0 0.0 0.00 0.00 0.00 85 1021.7
20260901192306 61 326 0.0 0.0 0.00 0.00 0.00 84 1021.6
20260901191804 62 326 0.0 0.0 0.00 0.00 0.00 82 1021.6
20260901191304 62 326 0.0 0.0 0.00 0.00 0.00 81 1021.6
20260901190804 62 326 0.0 0.0 0.00 0.00 0.00 82 1021.6
20260901190303 62 326 0.0 0.0 0.00 0.00 0.00 82 1021.6
20260901185306 63 326 0.0 0.0 0.00 0.00 0.00 81 1021.5
20260901184804 64 326 0.0 0.0 0.00 0.00 0.00 78 1021.2
20260901183804 64 326 0.0 0.0 0.00 0.00 0.00 76 1021.2
20260901183304 65 326 0.0 0.0 0.00 0.00 0.00 77 1021.2
20260901182804 65 326 0.0 0.0 0.00 0.00 0.00 74 1021.2
20260901181804 67 326 0.0 0.0 0.00 0.00 0.00 71 1020.9
20260901181303 67 326 0.0 0.0 0.00 0.00 0.00 70 1020.9
20260901180804 67 326 0.0 0.0 0.00 0.00 0.00 69 1020.9
20260901180304 68 326 0.0 0.0 0.00 0.00 0.00 67 1020.8
20260901175803 69 326 0.0 0.0 0.00 0.00 0.00 66 1020.8
20260901175305 69 326 0.0 0.0 0.00 0.00 0.00 64 1020.8
20260901174804 70 326 0.0 0.0 0.00 0.00 0.00 63 1020.8
20260901173803 70 323 0.0 0.0 0.00 0.00 0.00 62 1020.8
20260901173303 71 323 0.0 0.0 0.00 0.00 0.00 61 1020.7
20260901172803 71 323 0.0 0.0 0.00 0.00 0.00 61 1020.7
20260901172305 72 323 0.0 0.0 0.00 0.00 0.00 59 1020.7
20260901171804 72 317 0.0 0.0 0.00 0.00 0.00 58 1020.7
20260901171304 72 0 0.0 0.0 0.00 0.00 0.00 59 1020.7
20260901170803 72 318 0.0 1.0 0.00 0.00 0.00 57 1020.7
20260901170303 73 263 0.0 0.0 0.00 0.00 0.00 56 1020.7
20260901165306 74 302 0.0 0.0 0.00 0.00 0.00 54 1020.8
20260901164803 74 297 0.0 1.0 0.00 0.00 0.00 54 1020.8
20260901164303 75 336 0.0 3.0 0.00 0.00 0.00 54 1020.8
20260901163804 75 41 1.0 6.0 0.00 0.00 0.00 52 1020.9
20260901163303 75 22 0.0 0.0 0.00 0.00 0.00 53 1020.9
20260901162803 75 316 0.0 1.0 0.00 0.00 0.00 51 1020.9
20260901161803 75 3 0.0 1.0 0.00 0.00 0.00 51 1020.9
20260901161303 76 273 0.0 2.0 0.00 0.00 0.00 50 1020.9
20260901160803 76 245 0.0 5.0 0.00 0.00 0.00 52 1020.9
20260901160303 76 321 0.0 1.0 0.00 0.00 0.00 51 1020.9
20260901155803 75 281 0.0 1.0 0.00 0.00 0.00 51 1020.9
20260901154803 76 283 1.0 5.0 0.00 0.00 0.00 50 1020.8
20260901153803 78 267 0.0 0.0 0.00 0.00 0.00 49 1020.8
20260901153303 79 313 0.0 1.0 0.00 0.00 0.00 48 1020.8
20260901152803 80 356 0.0 0.0 0.00 0.00 0.00 47 1020.8
20260901152305 80 303 0.0 2.0 0.00 0.00 0.00 46 1020.8
20260901151802 80 325 0.0 2.0 0.00 0.00 0.00 47 1020.9
20260901151302 80 355 0.0 0.0 0.00 0.00 0.00 48 1020.9
20260901150802 80 355 0.0 0.0 0.00 0.00 0.00 47 1020.9
20260901150303 80 347 0.0 3.0 0.00 0.00 0.00 46 1020.9
20260901145803 80 291 1.0 5.0 0.00 0.00 0.00 47 1020.9
20260901145306 80 244 1.0 3.0 0.00 0.00 0.00 48 1020.9
20260901144303 78 348 0.0 5.0 0.00 0.00 0.00 48 1020.9
20260901143803 79 315 1.0 6.0 0.00 0.00 0.00 49 1020.9
20260901142803 77 302 0.0 2.0 0.00 0.00 0.00 50 1020.9
20260901142305 77 24 0.0 2.0 0.00 0.00 0.00 49 1021.1
20260901141802 78 294 0.0 5.0 0.00 0.00 0.00 49 1021.1
20260901141303 79 284 1.0 5.0 0.00 0.00 0.00 48 1021.1
20260901140303 79 21 1.0 3.0 0.00 0.00 0.00 48 1021.2
20260901135802 81 318 1.0 5.0 0.00 0.00 0.00 47 1021.2
20260901135305 81 33 0.0 3.0 0.00 0.00 0.00 50 1021.2
20260901134803 80 323 0.0 2.0 0.00 0.00 0.00 48 1021.2
20260901134303 78 32 0.0 8.0 0.00 0.00 0.00 47 1021.2
20260901133303 80 276 1.0 9.0 0.00 0.00 0.00 48 1021.2
20260901132802 80 27 2.0 7.0 0.00 0.00 0.00 47 1021.2
20260901132306 80 308 1.0 5.0 0.00 0.00 0.00 48 1021.2
20260901131802 79 318 1.0 3.0 0.00 0.00 0.00 49 1021.5
20260901131303 78 50 0.0 1.0 0.00 0.00 0.00 47 1021.5
20260901130803 77 334 0.0 3.0 0.00 0.00 0.00 51 1021.5
20260901130302 78 273 0.0 7.0 0.00 0.00 0.00 48 1021.5
20260901125802 79 358 0.0 5.0 0.00 0.00 0.00 48 1021.5
20260901125308 79 283 1.0 7.0 0.00 0.00 0.00 48 1021.5
20260901124803 79 279 1.0 6.0 0.00 0.00 0.00 48 1021.5
20260901124302 77 280 1.0 5.0 0.00 0.00 0.00 51 1021.4
20260901123802 75 296 2.0 5.0 0.00 0.00 0.00 50 1021.4
20260901123303 76 22 1.0 7.0 0.00 0.00 0.00 49 1021.4
20260901122306 78 292 0.0 3.0 0.00 0.00 0.00 50 1021.7
20260901121802 77 31 0.0 3.0 0.00 0.00 0.00 50 1021.7
20260901121302 77 63 1.0 5.0 0.00 0.00 0.00 50 1021.7
20260901120803 79 291 1.0 7.0 0.00 0.00 0.00 48 1021.7
20260901120303 80 300 1.0 5.0 0.00 0.00 0.00 46 1021.7